CAPE
0 0 0 0 0 0 0 0 0 0 0 0 0 0 0 0 0 0 0 0 0 0 0 0 0 0 1 4 1 1 0 0 0 0 0 0 0 0 0 0 0 0 0 0
0 0 0 0 0 0 0 0 0 0 0 0 0 0 0 0 0 0 0 0 0 0 0 0 0 0 0 0 3 3 0 0 0 0 0 0 0 0 0 0 0 0 0 0
0 0 0 0 0 0 0 0 0 0 0 0 0 0 0 0 0 0 0 0 0 0 0 0 0 0 0 0 0 2 5 0 0 0 0 0 0 0 0 0 0 0 0 0
0 0 0 0 0 0 0 0 0 0 0 0 0 0 0 0 0 0 0 0 0 0 0 0 0 0 0 0 0 0 1 1 0 0 0 0 0 0 0 0 0 0 0 0
0 0 0 0 0 0 0 3 10 0 0 0 0 0 0 0 0 0 0 0 0 0 0 0 0 0 0 0 0 0 0 0 0 0 0 0 0 0 0 0 0 0 0 0
0 1 0 0 0 0 0 0 0 0 0 0 0 0 0 0 0 0 0 0 0 0 0 0 0 0 0 0 0 0 0 0 0 0 0 0 0 0 0 0 0 0 0 0
3 10 0 0 0 0 1 0 0 0 0 0 0 0 0 0 0 0 0 0 0 0 0 0 0 0 0 0 0 0 0 0 0 0 0 0 0 0 0 0 0 0 0 0
18 19 3 0 0 0 0 0 0 0 0 0 0 0 0 0 0 0 0 0 0 0 0 0 0 0 0 0 0 0 0 0 0 0 0 0 0 0 0 0 0 0 0 0
3 0 0 0 0 0 0 0 0 0 0 0 0 0 0 0 0 0 0 0 0 0 0 0 0 0 0 0 0 0 0 0 0 0 0 0 0 0 0 0 0 0 0 0
1 0 0 0 0 0 0 0 0 0 0 0 0 0 0 0 0 0 0 0 0 0 0 0 0 0 0 0 0 0 0 0 2 3 1 1 0 0 0 0 0 0 0 0
3 2 10 0 0 0 0 0 0 0 0 0 0 0 0 0 0 0 0 0 0 0 0 0 0 0 0 0 0 0 0 4 6 0 0 0 0 0 0 0 0 0 0 0
15 0 1 0 0 0 0 0 0 0 0 0 0 0 0 0 0 0 0 0 0 0 0 0 0 0 0 0 0 0 0 0 0 1 0 0 0 0 0 0 0 0 0 0
9 1 1 2 0 0 0 0 0 0 0 0 0 0 0 0 0 0 0 0 0 0 0 0 0 0 0 0 0 0 0 0 0 0 6 0 0 0 0 0 0 0 0 0
0 0 3 0 0 0 0 0 0 0 0 0 0 0 0 0 0 0 0 0 0 0 0 0 0 0 0 0 0 0 0 0 0 3 0 0 0 0 0 8 3 1 0 0
0 5 0 0 0 0 0 0 0 0 0 0 0 0 0 0 0 0 0 0 0 0 0 0 0 0 0 0 0 0 0 0 0 5 7 0 0 0 0 0 1 1 4 0
16 5 2 0 0 0 0 0 0 0 0 0 0 0 0 0 0 0 0 0 0 0 0 0 0 0 0 0 0 0 0 0 0 0 7 0 0 0 1 0 0 2 4 0
19 3 20 17 12 0 0 0 0 0 0 0 0 0 0 0 0 0 0 0 0 0 0 0 0 0 0 0 0 0 0 0 0 0 1 0 0 0 1 1 0 0 2 0
0 1 9 14 3 1 0 0 0 0 0 0 0 0 0 0 0 0 0 0 0 0 0 0 0 0 0 0 0 0 5 0 0 1 7 4 0 0 1 2 0 0 0 0
0 0 0 0 0 0 0 0 0 0 0 0 0 0 0 0 0 0 0 0 0 0 0 0 0 0 0 0 0 0 20 0 0 2 9 3 0 0 1 0 0 0 0 0
9 24 7 0 0 0 0 0 0 0 0 0 0 0 0 0 0 0 0 0 0 0 0 0 0 0 0 0 0 0 22 10 1 3 7 5 0 0 0 0 0 0 0 0
0 0 0 0 0 0 0 0 0 0 0 0 0 0 0 0 0 0 0 0 0 0 0 0 0 0 0 1 0 0 3 3 3 5 2 2 1 0 0 0 1 0 0 0
0 0 0 0 0 0 0 0 0 0 0 0 0 0 0 0 0 0 0 0 0 0 0 5 11 2 6 0 7 11 11 10 8 13 7 5 0 0 0 0 0 0 0 0
0 0 0 0 0 0 0 0 0 0 0 0 0 0 0 0 0 1 3 0 3 6 11 16 6 0 0 2 14 12 6 10 11 12 14 9 0 0 0 0 0 0 0 0
0 0 0 0 0 0 0 0 0 0 0 0 0 0 0 3 6 9 10 1 0 1 2 14 1 0 0 7 12 13 15 19 17 12 8 4 0 0 0 0 0 0 0 0
0 0 0 0 0 0 0 0 0 0 0 0 0 1 4 9 14 4 6 11 1 3 15 2 0 0 1 0 6 12 18 21 11 2 0 0 0 0 0 0 0 0 0 0
2 0 0 0 0 0 0 0 3 2 7 16 20 18 12 9 12 15 17 11 21 11 14 8 2 0 2 4 4 8 15 16 8 1 0 0 0 0 0 0 0 0 0 1
13 3 9 7 7 8 9 13 27 25 20 19 16 11 16 18 21 24 21 29 25 15 12 9 5 0 0 2 3 10 12 19 11 14 3 0 0 0 0 0 0 0 0 0
CIN
0 0 0 0 0 0 0 0 0 0 0 0 0 0 0 0 0 0 0 0 0 0 0 0 0 0 0 0 0 0 0 0 0 0 0 0 0 0 0 0 0 0 0 0
0 0 0 0 0 0 0 0 0 0 0 0 0 0 0 0 0 0 0 0 0 0 0 0 0 0 0 0 0 0 0 0 0 0 0 0 0 0 0 0 0 0 0 0
0 0 0 0 0 0 0 0 0 0 0 0 0 0 0 0 0 0 0 0 0 0 0 0 0 0 0 0 0 0 0 0 0 0 0 0 0 0 0 0 0 0 0 0
0 0 0 0 0 0 0 0 0 0 0 0 0 0 0 0 0 0 0 0 0 0 0 0 0 0 0 0 0 0 0 0 0 0 0 0 0 0 0 0 0 0 0 0
0 0 0 0 0 0 0 0 0 0 0 0 0 0 0 0 0 0 0 0 0 0 0 0 0 0 0 0 0 0 0 0 0 0 0 0 0 0 0 0 0 0 0 0
0 0 0 0 0 0 0 0 0 0 0 0 0 0 0 0 0 0 0 0 0 0 0 0 0 0 0 0 0 0 0 0 0 0 0 0 0 0 0 0 0 0 0 0
0 0 0 0 0 0 0 0 0 0 0 0 0 0 0 0 0 0 0 0 0 0 0 0 0 0 0 0 0 0 0 0 0 0 0 0 0 0 0 0 0 0 0 0
0 0 0 0 0 0 0 0 0 0 0 0 0 0 0 0 0 0 0 0 0 0 0 0 0 0 0 0 0 0 0 0 0 0 0 0 0 0 0 0 0 0 0 0
0 0 0 0 0 0 0 0 0 0 0 0 0 0 0 0 0 0 0 0 0 0 0 0 0 0 0 0 0 0 0 0 0 0 0 0 0 0 0 0 0 0 0 0
0 0 0 -2 0 0 0 0 0 0 0 0 0 0 0 0 0 0 0 0 0 0 0 0 0 0 0 0 0 0 0 0 0 0 0 0 0 0 0 0 0 0 0 0
0 0 -2 0 0 0 0 0 0 0 0 0 0 0 0 0 0 0 0 0 0 0 0 0 0 0 0 0 0 0 0 0 0 0 0 0 0 0 0 0 0 0 0 0
0 -2 -1 0 0 0 0 0 0 0 0 0 0 0 0 0 0 0 0 0 0 0 0 0 0 0 0 0 0 0 0 0 0 0 0 0 0 0 0 0 0 0 0 0
0 -1 -3 -9 0 0 0 0 0 0 0 0 0 0 0 0 0 0 0 0 0 0 0 0 0 0 0 0 0 0 0 0 0 0 0 0 0 0 0 0 0 0 0 0
0 0 -1 -4 0 0 0 0 0 0 0 0 0 0 0 0 0 0 0 0 0 0 0 0 0 0 0 0 0 0 0 0 0 0 0 -1 0 0 0 0 0 0 0 0
0 -40 0 0 0 0 0 0 0 0 0 0 0 0 0 0 0 0 0 0 0 0 0 0 0 0 0 0 0 0 0 0 0 0 0 0 0 0 0 0 -1 0 0 0
-31 -57 -36 -6 0 0 0 0 0 0 0 0 0 0 0 0 0 0 0 0 0 0 0 0 0 0 0 0 0 0 0 0 0 0 0 0 0 0 0 0 0 0 0 0
-1 0 -13 -11 -19 -22 0 0 0 0 0 0 0 0 0 0 0 0 0 0 0 0 0 0 0 0 0 0 0 0 0 0 0 0 0 0 0 0 0 -1 0 0 0 0
0 -1 0 0 -9 -15 0 0 0 0 0 0 0 0 0 0 0 0 0 0 0 0 0 0 0 0 0 0 0 0 0 0 0 0 0 0 0 0 0 0 0 0 0 0
0 0 0 0 0 0 0 0 0 0 0 0 0 0 0 0 0 0 0 0 0 0 0 0 0 0 0 0 0 0 0 0 0 0 0 0 0 0 0 0 0 0 0 0
-25 -19 -20 -3 0 0 0 0 0 0 0 0 0 0 0 0 0 0 0 0 0 0 0 0 0 0 0 0 0 0 0 0 0 0 0 0 0 0 0 0 0 0 0 0
0 0 0 0 0 0 0 0 0 0 0 0 0 0 0 0 0 0 0 0 0 0 0 0 0 0 0 0 0 0 0 0 0 0 -2 0 0 0 0 0 0 0 0 0
0 0 0 0 0 0 0 0 0 0 0 0 0 0 0 0 0 0 0 0 0 0 0 0 0 -1 -1 0 0 0 0 0 0 0 0 -1 0 0 0 0 0 0 0 0
0 0 0 0 0 0 0 0 0 0 0 0 0 0 0 0 0 0 0 0 -1 -2 0 0 -1 0 0 -3 0 0 0 0 0 0 -1 -1 -1 0 0 0 0 0 0 0
0 0 0 0 0 0 0 0 0 0 0 0 0 0 0 0 0 0 0 -2 0 -9 -4 0 -2 0 0 0 0 0 0 0 0 -1 -1 -2 0 0 0 0 0 0 0 0
0 0 0 0 0 0 0 0 0 0 0 0 0 0 0 0 0 0 0 0 0 -2 0 -2 0 0 -1 -1 0 0 0 0 0 -2 -1 0 0 0 0 0 0 0 0 0
0 0 0 0 0 0 0 0 0 0 0 0 0 0 0 0 0 0 0 -1 0 0 0 -2 -4 -3 0 0 0 0 0 0 0 -1 -1 0 0 0 0 0 0 0 0 0
0 0 0 0 0 0 0 0 0 0 0 0 0 0 0 0 0 0 0 0 0 0 0 -2 -1 0 0 0 0 0 0 0 -1 0 0 0 0 0 0 0 0 0 0 0
Wind_Speed
4 6 5 6 9 6 3 2 1 9 8 4 5 6 9 10 11 13 16 18 18 17 16 15 15 14 8 4 7 10 12 12 13 13 14 14 14 14 14 14 14 14 14 13
5 4 5 9 8 6 5 5 6 7 3 3 5 6 9 11 13 15 16 16 17 17 17 15 14 13 12 9 7 9 10 10 10 12 13 13 13 15 15 15 15 15 15 14
5 10 9 9 3 8 4 4 4 9 5 6 7 9 10 10 12 14 15 15 15 16 15 15 14 14 12 11 9 9 10 9 10 12 12 13 15 15 15 15 15 16 16 16
3 3 4 4 5 5 5 7 7 9 7 6 6 9 9 9 10 11 12 13 13 12 12 14 16 16 15 10 10 10 10 10 10 10 12 13 14 16 14 14 15 12 12 14
3 6 9 1 1 1 1 5 3 6 3 3 2 11 4 7 8 9 9 9 10 13 13 14 17 19 16 7 6 7 9 10 10 12 11 11 12 13 12 12 12 13 13 15
5 4 6 1 1 1 1 5 4 4 1 3 2 6 3 3 6 8 9 8 10 12 13 14 16 16 18 10 4 7 8 9 11 10 11 14 13 12 10 10 13 12 13 12
10 6 6 3 3 2 9 4 5 2 3 1 1 2 3 4 4 5 7 10 9 10 11 13 13 13 14 11 12 13 7 8 10 12 11 11 11 11 10 9 11 13 13 13
10 9 12 8 4 7 4 2 4 2 1 2 5 7 6 7 6 6 8 10 10 8 10 11 11 11 11 11 11 12 10 9 11 13 11 11 13 11 14 13 12 10 11 12
8 6 3 5 3 2 4 5 6 7 6 5 8 10 10 10 11 9 8 9 9 8 9 11 10 9 10 9 10 13 8 9 11 13 13 13 13 12 10 12 13 12 11 11
12 15 13 10 14 14 10 11 14 10 9 6 9 9 10 12 11 11 12 11 9 9 10 11 11 10 8 9 9 9 13 9 11 11 11 11 9 9 10 12 12 12 12 11
22 18 13 16 16 17 20 20 15 11 12 12 11 13 13 13 15 14 13 11 10 10 11 12 11 12 9 8 8 8 10 8 9 7 9 9 10 11 12 14 15 16 14 13
14 12 15 19 20 23 22 20 18 19 19 15 14 14 14 13 14 14 13 12 11 12 14 13 13 14 11 7 7 7 4 2 4 5 6 8 8 8 10 8 13 13 12 15
19 18 20 22 21 24 20 19 19 19 18 16 15 13 15 14 14 15 16 15 12 13 14 14 16 15 13 9 6 7 6 5 3 4 7 9 9 9 8 6 10 12 14 16
18 19 24 25 22 22 22 22 22 20 19 17 17 15 14 15 15 16 16 15 15 14 15 15 15 15 13 11 10 9 9 7 8 6 8 9 10 10 10 11 11 11 13 18
20 21 24 22 22 21 20 18 21 20 19 17 15 16 15 16 15 17 16 16 15 15 15 14 14 14 14 12 12 11 9 8 9 8 8 10 10 10 9 10 11 10 10 9
20 19 21 22 23 22 20 21 21 19 16 16 16 17 17 17 16 17 17 16 15 13 15 15 15 15 14 12 13 11 10 10 9 9 8 9 9 10 10 11 11 11 12 13
19 22 19 18 17 21 19 17 18 18 16 17 18 16 16 16 16 16 16 16 17 16 15 14 16 15 14 13 14 10 8 9 9 9 6 8 9 10 10 10 10 11 12 13
19 20 19 19 17 15 16 16 16 17 16 17 16 16 17 17 17 17 16 16 15 15 16 16 16 16 16 15 14 10 10 9 9 9 8 8 9 10 10 11 11 11 10 11
5 11 15 15 14 14 15 16 17 16 14 15 15 15 15 15 16 16 15 14 13 16 16 16 17 14 17 16 13 11 11 11 10 9 9 9 10 10 10 11 11 12 11 11
5 7 9 10 9 10 12 13 15 15 14 13 12 12 14 15 15 15 16 18 18 16 16 16 16 16 17 17 14 12 12 12 11 10 9 9 9 10 11 13 13 12 12 12
10 9 10 12 11 11 10 12 12 13 15 15 15 16 16 16 16 15 16 15 21 17 16 19 17 14 13 14 14 12 13 12 12 11 11 10 10 11 12 12 13 12 11 11
12 12 12 12 12 14 14 14 14 14 15 16 15 15 17 19 18 18 19 20 14 17 13 13 13 18 15 18 13 13 13 13 12 11 11 11 11 11 12 12 12 11 11 11
15 15 15 14 13 14 15 16 16 17 17 18 18 19 18 16 14 15 16 16 14 14 13 15 18 19 19 13 13 13 14 14 13 12 12 11 11 11 12 12 12 12 11 11
17 16 16 16 15 15 18 19 18 19 19 20 21 20 17 14 15 14 16 19 22 17 16 15 14 18 19 13 13 13 13 13 13 12 12 13 11 11 11 11 11 10 10 12
17 16 16 16 17 15 18 17 18 18 19 19 20 19 21 15 16 14 14 14 20 17 15 20 22 23 14 13 14 13 13 13 13 12 12 11 10 12 11 11 11 11 11 12
16 13 13 18 16 14 13 13 14 13 14 15 14 14 14 13 14 15 15 17 16 18 15 13 12 12 13 13 13 13 13 12 14 13 11 10 10 11 11 11 11 11 11 11
14 15 13 14 13 13 13 14 14 15 14 14 16 14 14 14 15 16 18 15 14 14 15 12 11 13 12 12 13 13 12 12 13 11 10 10 10 10 10 10 10 10 10 9
Wind_Direction
308 305 309 288 294 318 342 40 280 133 137 104 50 39 29 29 34 38 33 27 22 17 14 9 2 356 336 240 183 182 182 177 176 172 166 160 163 167 161 165 169 167 163 162
300 345 316 289 271 262 244 239 264 248 196 124 88 64 42 32 31 36 34 27 20 16 15 7 356 345 332 300 244 202 194 190 174 165 167 166 165 162 162 165 170 166 166 167
272 341 326 281 294 230 192 144 196 214 102 135 100 79 52 41 39 33 28 26 22 15 10 2 353 338 321 304 262 226 217 188 169 169 169 167 160 164 167 164 170 176 168 170
283 314 247 29 15 239 189 117 100 107 105 107 128 108 71 47 40 33 19 16 17 14 4 4 0 348 320 283 237 220 218 202 163 171 172 168 167 172 167 166 173 174 180 169
226 226 312 140 48 55 237 148 91 157 112 55 36 195 88 38 31 19 10 8 5 4 2 0 8 5 356 348 222 213 216 201 183 167 167 168 169 170 168 164 168 179 178 176
198 226 230 25 150 350 156 220 128 120 81 26 353 187 132 4 7 11 1 356 355 360 2 6 1 16 21 9 297 247 229 216 194 178 175 172 170 165 168 173 181 175 174 180
216 235 264 201 212 193 210 107 132 115 107 15 174 55 340 292 325 346 349 343 340 352 360 1 359 2 28 21 13 339 267 219 205 190 180 179 165 159 156 171 180 190 178 179
220 228 246 189 168 219 81 128 170 187 90 295 257 272 291 301 295 311 327 339 334 329 343 352 355 352 3 22 2 354 320 224 209 201 184 175 169 167 163 164 183 194 182 178
206 213 287 184 187 147 172 255 241 240 254 256 265 259 270 283 284 291 303 316 321 303 318 335 339 345 334 349 350 356 324 247 220 209 200 188 177 175 176 177 181 185 185 184
250 242 237 242 269 281 270 262 259 237 250 263 257 246 263 281 278 281 296 303 309 294 290 309 327 320 322 325 334 353 337 249 227 212 199 196 194 185 185 190 193 185 187 184
253 251 262 266 269 275 274 280 258 245 242 249 255 266 272 278 283 280 275 284 291 295 272 286 309 305 306 315 325 348 6 318 235 217 202 194 199 198 203 201 197 187 190 185
244 250 251 264 267 260 258 253 246 252 252 246 258 265 273 270 273 272 270 273 274 284 278 277 295 295 285 285 303 313 357 14 346 268 213 203 204 210 239 226 202 208 188 182
253 255 258 263 262 258 255 257 257 249 241 250 260 261 263 266 270 263 270 271 269 278 273 277 285 281 274 261 257 276 285 285 218 256 249 223 204 199 205 224 192 193 183 190
250 257 259 257 257 253 254 255 259 252 246 256 261 264 263 261 262 262 265 267 274 265 268 272 272 274 266 252 248 257 269 264 264 266 240 221 205 205 204 202 193 196 191 187
253 247 249 255 256 255 258 255 254 250 253 256 253 257 262 259 257 256 261 268 264 262 266 265 265 265 264 245 242 251 263 275 278 273 265 225 209 206 206 208 202 193 179 182
252 247 246 244 250 251 249 246 245 253 255 254 255 259 257 252 256 260 260 259 259 257 256 255 259 263 263 244 242 247 254 255 261 269 275 222 208 205 203 203 197 191 186 188
256 262 255 252 254 259 256 253 251 250 249 253 255 258 257 252 256 257 253 253 253 251 251 250 253 254 247 246 248 248 248 249 245 265 264 235 211 206 205 202 193 194 197 190
253 253 252 262 266 263 259 255 254 253 253 254 254 249 249 253 253 251 249 250 254 257 255 252 248 246 246 248 254 248 241 240 245 253 257 239 219 214 201 198 196 196 192 188
297 269 263 260 257 256 261 262 261 260 254 247 248 249 249 247 247 249 253 254 250 254 255 252 249 241 247 246 244 245 234 235 245 249 246 242 223 210 208 204 199 196 186 179
285 277 275 269 266 252 258 259 258 257 253 248 244 243 242 243 246 252 255 251 248 252 259 259 251 247 244 241 228 234 229 232 238 240 238 237 223 210 209 203 200 196 186 186
285 283 284 282 278 276 267 268 262 259 261 258 252 251 251 254 253 250 253 255 255 257 254 251 247 245 246 242 236 229 229 229 231 237 231 231 221 211 208 204 201 194 189 190
284 280 272 273 271 272 272 272 266 260 259 262 258 253 255 258 257 253 247 253 266 258 254 248 244 244 241 236 234 233 233 233 233 231 228 228 225 218 216 204 199 192 189 189
270 267 266 264 261 264 270 269 265 261 258 256 255 254 252 255 258 259 261 252 251 245 247 250 246 242 236 229 234 232 233 230 229 231 230 226 217 215 212 202 198 192 187 187
265 268 265 264 267 265 262 263 264 261 260 260 258 256 258 261 257 250 256 259 255 251 250 247 240 237 234 231 231 229 228 226 229 228 230 218 212 210 206 198 197 192 188 188
266 267 269 267 266 264 265 265 265 264 263 263 262 260 256 253 255 263 260 257 255 246 244 243 238 235 226 225 227 226 225 226 227 226 222 217 209 207 201 197 195 192 190 189
266 263 262 260 261 264 264 264 264 266 267 265 264 264 261 257 256 255 255 254 250 249 249 245 234 224 220 219 218 217 220 223 223 221 212 205 200 201 200 194 192 192 191 189
271 262 263 262 259 261 263 263 265 267 265 266 268 268 265 261 257 254 252 249 244 244 244 240 234 215 212 210 211 213 214 216 213 216 206 199 197 196 192 191 188 187 184 182